Location: Nasgenstadt
(48.2786°N, 9.7553°E)
Time: 13:43:48
(UTC+01:00)

ISS - Visible Passes

Search period start: 21 January 2018 00:00
Search period end: 31 January 2018 00:00
Orbit: 402 x 407 km, 51.6° (Epoch: 21 January)

Date Brightness Start Highest point End Pass type
(mag) Time Alt. Az. Time Alt. Az. Time Alt. Az.
25 Jan -0.9 19:45:52 10° SW 19:46:19 13° SW 19:46:19 13° SW visible
26 Jan -2.3 18:54:02 10° SSW 18:56:26 24° SSE 18:56:26 24° SSE visible
27 Jan -1.7 18:02:40 10° S 18:04:36 15° SE 18:06:28 10° E visible
27 Jan -2.0 19:37:22 10° WSW 19:39:08 29° SW 19:39:08 29° SW visible
28 Jan -3.4 18:45:10 10° SW 18:48:19 46° SSE 18:49:05 37° ESE visible
28 Jan -0.3 20:21:35 10° W 20:21:45 11° W 20:21:45 11° W visible
29 Jan -2.5 17:53:12 10° SSW 17:56:03 29° SE 17:58:56 10° E visible
29 Jan -2.9 19:29:06 10° WSW 19:31:38 48° W 19:31:38 48° W visible
30 Jan -3.9 18:36:41 10° WSW 18:39:57 85° SSE 18:41:27 29° ENE visible
30 Jan -0.6 20:13:27 10° WNW 20:14:06 15° WNW 20:14:06 15° WNW visible
